Back to catalog

STARLINK-33980

AliveCommunicationsVLEO
NORAD 63930·PAYLOAD·🇺🇸 United States

Launched May 13, 2025 from Vandenberg Space Force Base

Loading…

Next Passes (next 24 hours)

TLE

FreshSource: CelesTrak SupGP

Epoch: Sep 14, 2026, 23:12 UTC

1 63930C 25098E   26257.96715278 -.00030023  00000+0 -10443-2 0  2572
2 63930  70.0004 155.6589 0003274 272.4980  91.7850 15.29596665    16

Track STARLINK-33980 in real time with AllMySat

Download on the App Store